This is the latest recevied weather packets stored in our database for station/object VK5KX. If no packets are shown the sender has not sent any weather packets the latest 10 day(s).
| Time | Temp. | Humidity | Pressure | Rain* | Wind** | Luminosity | Snow |
|---|---|---|---|---|---|---|---|
| 1777622425 | 27.22° C | 33% | 1013.7 hPa | 0 mm | - | - | - |
| 1777621526 | 27.78° C | 32% | 1013.8 hPa | 0 mm | - | - | - |
| 1777620625 | 28.33° C | 31% | 1013.7 hPa | 0 mm | - | - | - |
| 1777619722 | 28.33° C | 31% | 1013.8 hPa | 0 mm | - | - | - |
| 1777618823 | 28.33° C | 30% | 1013.8 hPa | 0 mm | - | - | - |
| 1777617920 | 28.89° C | 29% | 1013.9 hPa | 0 mm | - | - | - |
| 1777617020 | 29.44° C | 29% | 1014 hPa | 0 mm | - | - | - |
| 1777616116 | 28.89° C | 30% | 1013.9 hPa | 0 mm | - | - | - |
| 1777615216 | 28.89° C | 30% | 1014 hPa | 0 mm | - | - | - |
| 1777614316 | 28.89° C | 30% | 1014.1 hPa | 0 mm | - | - | - |
| 1777613414 | 28.89° C | 29% | 1014.3 hPa | 0 mm | - | - | - |
| 1777612511 | 29.44° C | 29% | 1014.2 hPa | 0 mm | - | - | - |
| 1777611614 | 28.89° C | 29% | 1014.4 hPa | 0 mm | - | - | - |
| 1777610707 | 29.44° C | 29% | 1014.5 hPa | 0 mm | - | - | - |
| 1777609804 | 28.89° C | 30% | 1014.6 hPa | 0 mm | - | - | - |
| 1777608903 | 28.89° C | 31% | 1014.7 hPa | 0 mm | - | - | - |
| 1777608070 | 28.89° C | 31% | 1015 hPa | 0 mm | - | - | - |
| 1777607178 | 28.89° C | 30% | 1015.2 hPa | 0 mm | - | - | - |
| 1777606271 | 29.44° C | 30% | 1015.4 hPa | 0 mm | - | - | - |
| 1777605352 | 29.44° C | 30% | 1015.6 hPa | 0 mm | - | - | - |
| 1777604449 | 29.44° C | 30% | 1016 hPa | 0 mm | - | - | - |
| 1777603548 | 28.89° C | 31% | 1016.3 hPa | 0 mm | - | - | - |
| 1777602642 | 28.33° C | 31% | 1016.8 hPa | 0 mm | - | - | - |
| 1777601740 | 28.89° C | 30% | 1016.9 hPa | 0 mm | - | - | - |
| 1777600855 | 28.33° C | 31% | 1017.1 hPa | 0 mm | - | - | - |
* Rain latest hour (hover to see other rain measurements)
** Current wind speed in m/s (hover to see current wind gust speed)